Location: Newark
(49.5647°N, 8.2922°E)
Time: 09:15:05
(UTC+00:00)

Vanguard 1 Rocket - Visible Passes

Search period start: 17 February 2020 00:00
Search period end: 27 February 2020 00:00
Orbit: 650 x 4226 km, 34.3° (Epoch: 16 February)

Date Brightness Start Highest point End Pass type
(mag) Time Alt. Az. Time Alt. Az. Time Alt. Az.
17 Feb 9.0 04:31:58 10° SSW 04:33:26 12° S 04:35:06 10° SSE visible
18 Feb 9.0 05:45:00 10° SSW 05:46:43 12° S 05:48:30 10° SSE visible
19 Feb 8.9 04:34:52 11° SSW 04:36:12 13° S 04:38:10 10° SSE visible
20 Feb 9.4 03:27:40 10° SSE 03:27:40 10° SSE 03:27:49 10° SSE visible
20 Feb 9.1 05:48:36 10° SSW 05:49:28 10° S 05:50:21 10° S visible
21 Feb 8.9 04:37:44 12° SSW 04:38:58 13° S 04:40:59 10° SSE visible
22 Feb 9.2 03:30:31 12° SSE 03:30:31 12° SSE 03:31:06 10° SSE visible
23 Feb 8.9 04:40:35 11° SSW 04:41:43 12° SSW 04:43:32 10° SSE visible
24 Feb 9.2 03:33:21 13° SSE 03:33:21 13° SSE 03:34:09 10° SSE visible
25 Feb 9.0 04:43:25 10° SSW 04:44:25 11° SSW 04:45:41 10° S visible
26 Feb 9.2 03:36:13 13° SSE 03:36:13 13° SSE 03:37:01 10° SSE visible
